Regional Weather Roundup
Issued by NWS

Home | Current Version | Previous Version | Text Only | Print | Product List | Glossary On
Versions: 1 2 3 4 5 6 7 8 9 10 11 12 13 14 15 16 17 18 19 20 21 22 23 24 25 26 27
000
ASUS42 KTBW 230816
RWRFL
FLORIDA REGIONAL WEATHER ROUNDUP
NATIONAL WEATHER SERVICE TAMPA BAY RUSKIN FL
300 AM EST MON JAN 23 2017

NOTE: "FAIR" INDICATES FEW OR NO CLOUDS BELOW 12,000 FEET WITH NO
SIGNIFICANT WEATHER AND/OR OBSTRUCTIONS TO VISIBILITY.

FLZ001>010-012>015-112-114-115-230900-
PANHANDLE FLORIDA

CITY           SKY/WX    TMP DP  RH WIND       PRES   REMARKS
PENSACOLA      CLOUDY    58  46  64 W16G22    29.48R
PENSACOLA NAS  CLOUDY    57  47  69 W8G16     29.49R
MILTON NAS     LGT RAIN  55  46  71 W18       29.46
CRESTVIEW      MOCLDY    55  43  63 W10       29.46S
DUKE FIELD     FAIR      55  43  63 W13G20    29.44S
VALPARAISO     PTCLDY    56  44  63 W15       29.46S
PANAMA CITY    FAIR      57  44  62 W10       29.43F
TYNDALL AFB    MOCLDY    58  52  79 NW14      29.45F
APALACHICOLA   LGT RAIN  60  52  74 W10       29.45S

STATION/POSITION SKY/WX   TEMP    WIND        PRES    WAVE   SWELL
                          AIR SEA DIR/SP/G            HT/PER HT/PER
                          (F)     (DEG/KT/KT) (MB)    (FT/S) (FT/S)
30.1N   87.6W              60 65  290/ 27/ 33  998.7R   9/ 8
28.8N   86.0W              63 75               998.8   18/10
PANAMA CITY BEAC           61 65  290/ 27/ 31  997.3F
TOWER C                    65     290/ 30/ 34  997.6F
28.5N   84.5W              69 72  280/ 27/ 35  998.0   15/ 8

$$
FLZ011-016>038-118-127-128-134-139-239-230900-
NORTH FLORIDA

CITY           SKY/WX    TMP DP  RH WIND       PRES   REMARKS
MARIANNA       PTCLDY    56  43  61 W14       29.41F
TALLAHASSEE    CLEAR     55  44  66 W12       29.41F
PERRY          CLEAR     57  46  67 W8        29.45F
CROSS CITY     MOCLDY    57  54  88 W6        29.46S
LAKE CITY      FAIR      54  54 100 W7        29.44S
GAINESVILLE    MOCLDY    62  54  74 W7        29.45S
WILLISTON      CLEAR     59  57  94 SW5       29.47R
PALATKA        CLOUDY    57  57 100 CALM      29.46S
MAYPORT NAS    PTCLDY    60  52  74 SW13      29.42F
JACKSONVILLE   PTCLDY    57  53  86 SW10      29.41F
JAX NAS        PTCLDY    59  53  80 SW9       29.44F
FERNANDINA BEA FAIR      63  52  67 SW12      29.39F
ST AUGUSTINE   PTCLDY    58  55  90 SW7       29.45F

STATION/POSITION SKY/WX   TEMP    WIND        PRES    WAVE   SWELL
                          AIR SEA DIR/SP/G            HT/PER HT/PER
                          (F)     (DEG/KT/KT) (MB)    (FT/S) (FT/S)
SHELL POINT      NOT AVBL
KEATON BEACH               62     280/ 19/ 23  996.7F
CEDAR KEY                  66     290/ 15/ 18  998.1F
FERNANDINA                 61 67  220/  4/ 11  996.1F
30.7N   81.3W                 62                N/A     3/ 6   2/13
MAYPORT                    61 65  240/ 12/ 15  996.2F
31.4N   80.9W              61 60  220/ 16/ 19  994.2    5/ 6   2/13
ST AUGUSTINE               58 65  240/  7/  8  997.7F

$$
FLZ040-043>046-052-053-057-058-063-144-230900-
INTERIOR CENTRAL FLORIDA

CITY           SKY/WX    TMP DP  RH WIND       PRES   REMARKS
OCALA          CLOUDY    61  54  77 W7        29.47S
THE VILLAGES     N/A     61  61 100 MISG      29.38F
LEESBURG       CLOUDY    62  58  86 W12G21    29.48S
SANFORD        CLOUDY    64  59  83 SW13      29.47R
ORLANDO EXEC   CLOUDY    66  60  81 W14       29.47S
ORLANDO INTL   PTCLDY    65  59  81 W10       29.49R
KISSIMMEE      CLOUDY    65  59  81 W13       29.50R
WINTER HAVEN   CLOUDY    66  55  67 W15G22    29.50S
LAKELAND       CLOUDY    66  57  72 W18G30    29.50S
BARTOW         MOCLDY    64  55  72 W13G22    29.50S
OKEECHOBEE     CLOUDY    66  61  82 W8        29.53F

$$
FLZ041-047-054-059-064-141-147-230900-
EAST CENTRAL FLORIDA

CITY           SKY/WX    TMP DP  RH WIND       PRES   REMARKS
DAYTONA BEACH  PTCLDY    62  60  93 SW9       29.45F
DELAND         CLOUDY    63  57  82 SW9       29.46S
JFK SPACE CTR  CLEAR     66  64  91 SW9       29.46F
CAPE CANAVERAL CLEAR     66  63  90 SW9       29.47S
PATRICK AFB    CLEAR     66  66  98 SW12      29.48S
MELBOURNE      CLOUDY    65  65 100 SW8       29.49F
VERO BEACH     CLOUDY    67  65  93 SW8       29.51F
FT PIERCE      CLOUDY    67  65  93 W7        29.52F
STUART         CLOUDY    72  68  88 W7        29.54S

STATION/POSITION SKY/WX   TEMP    WIND        PRES    WAVE   SWELL
                          AIR SEA DIR/SP/G            HT/PER HT/PER
                          (F)     (DEG/KT/KT) (MB)    (FT/S) (FT/S)
TRIDENT PIER     NOT AVBL
28.4N   80.5W                 72                N/A     4/ 6   2/14
27.5N   80.2W                 74                N/A     4/ 5   2/13

$$
FLZ050-056-061-142-242-148-248-149-249-151-251-155-255-
160-260-230900-
WEST CENTRAL FLORIDA

CITY           SKY/WX    TMP DP  RH WIND       PRES   REMARKS
INVERNESS        N/A    N/A N/A N/A MISG        N/A
BROOKSVILLE    CLOUDY    66  57  72 W17       29.50S
CLEARWATER AIR CLOUDY    68  55  64 W16G23    29.51F
ST PETE CLEARW CLOUDY    67  58  72 W16       29.51S
TAMPA INTL     CLOUDY    67  59  75 W15G23    29.51S
TAMPA EXEC     CLOUDY    68  59  73 W6G17     29.52S
PLANT CITY     CLOUDY    68  61  77 W15G30    29.53S
MACDILL AFB    MOCLDY    68  61  77 W13G21    29.51S
PETER O KNIGHT CLOUDY    70  61  73 W12G18    29.51F
ST PETERSBURG  LGT RAIN  67  59  75 W17G29    29.49S
SARASOTA       LGT RAIN  67  59  75 W23G45    29.52R
VENICE         FAIR      72  63  73 W25G31    29.53F

STATION/POSITION SKY/WX   TEMP    WIND        PRES    WAVE   SWELL
                          AIR SEA DIR/SP/G            HT/PER HT/PER
                          (F)     (DEG/KT/KT) (MB)    (FT/S) (FT/S)
27.3N   84.2W                 77                N/A    16/ 9   3/11
CLEARWATER BEACH              71  270/ 22/ 28  999.3F
MIDDLE TAMPA BAY           68     300/ 24/ 31  999.9R
VENICE                     71 71  260/ 29/ 35  999.3R

$$
FLZ066-069-070-075>078-162-262-165-265-230900-
SOUTHWEST FLORIDA AND KEYS

CITY           SKY/WX    TMP DP  RH WIND       PRES   REMARKS
PUNTA GORDA    CLOUDY    71  59  65 W23G32    29.54F
FT MYERS       MOCLDY    73  62  68 W18G32    29.53F
SOUTHWEST INTL CLOUDY    73  61  65 W18G29    29.54F
NAPLES         CLOUDY    73  69  87 W22G32    29.56S
MARCO ISLAND   CLOUDY    72  63  73 W14G30    29.57S
MARATHON       CLOUDY    81  73  76 SW15G31   29.58F
KEY WEST NAS   TSTM      78  72  81 SW32G41   29.59F
KEY WEST INTL  LGT RAIN  78  74  87 SW26G38   29.58F

STATION/POSITION SKY/WX   TEMP    WIND        PRES    WAVE   SWELL
                          AIR SEA DIR/SP/G            HT/PER HT/PER
                          (F)     (DEG/KT/KT) (MB)    (FT/S) (FT/S)
NAPLES                        74              1001.0S
26.0N   85.6W              72 75  270/ 27/ 33 1003.2S  15/ 9
DRY TORTUGAS               76     280/ 28/ 31 1002.6F
SAND KEY                   78     220/ 35/ 41 1001.7F
LONG KEY                   78 76  220/ 27/ 31 1002.7F

$$
FLZ067-068-071>074-168-172>174-230900-
SOUTHEAST FLORIDA

CITY           SKY/WX    TMP DP  RH WIND       PRES   REMARKS
W PALM BEACH   TSTM      70  67  90 SW17G29   29.54R
FT LAUDER-EXEC TSTM      78  69  73 SW16G35   29.51F
FT LAUDERDALE  LGT RAIN  78  70  76 SW20G36   29.51F
POMPANO BEACH  TSTM      79  70  74 SW23G38   29.52S
PEMBROKE PINES LGT RAIN  78  70  76 S23G35    29.52F
OPA LOCKA      CLOUDY    79  70  74 SW30G36   29.53F
MIAMI          CLOUDY    80  70  71 SW23G36   29.54F
WEST KENDALL   CLOUDY    79  70  74 SW21G33   29.54F
HOMESTEAD      CLOUDY    78  76  94 S23G37    29.56F

STATION/POSITION SKY/WX   TEMP    WIND        PRES    WAVE   SWELL
                          AIR SEA DIR/SP/G            HT/PER HT/PER
                          (F)     (DEG/KT/KT) (MB)    (FT/S) (FT/S)
PORT EVERGLADES            79     200/ 12/ 24 1000.0F
VIRGINIA KEY               77 81  210/ 27/ 32 1000.7F
LAKE WORTH                 71 76  270/ 13/ 22  999.6R
FOWEY ROCKS                76 74  200/ 36/ 40 1001.1F

$$





USA.gov is the U.S. government's official web portal to all federal, state and local government web resources and services.